Weather History for Needles, CA

Change the Weather History Date:

Thursday, November 17, 2011

  Actual Average Record
Temperature  
Mean Temperature 62 °F -  
Max Temperature 73 °F 72 °F 84 °F (2008)
Min Temperature 50 °F 48 °F 34 °F (1958)
Degree Days  
Heating Degree Days 4    
Growing Degree Days 12 (Base 50)    
Moisture  
Dew Point 29 °F    
Average Humidity 30    
Maximum Humidity 43    
Minimum Humidity 18    
Precipitation  
Precipitation 0.00 in - - ()
Sea Level Pressure  
Sea Level Pressure 29.99 in    
Wind  
Wind Speed 5 mph (NW)    
Max Wind Speed 8 mph    
Max Gust Speed -    
Visibility 10 miles    
Events      
Averages and records for this station are not official NWS values.
T = Trace of Precipitation, MM = Missing Value Source: NWS Daily Summary

Daily Weather History Graph

Daily Weather History Graph

Search for Another Location

Airport:

Trip Planner

Search our weather history database for the weather conditions in past years. The results will help you decide how hot, cold, wet, or windy it might be!

Date:

Astronomy

Nov. 17, 2011 Rise Set
Actual Time 6:14 AM PST 4:32 PM PST
Civil Twilight 5:47 AM PST 4:59 PM PST
Nautical Twilight 5:16 AM PST 5:29 PM PST
Astronomical Twilight 4:46 AM PST 5:59 PM PST
Moon 10:51 PM PST (11/17) 11:29 AM PST (11/17)
Length of Visible Light 11h 11m
Length of Day
10h 18m
Waning Gibbous, 59% of the Moon is Illuminated
Nov 17
Waning Gibbous
Nov 18
Last Quarter
Nov 24
New
Dec 2
First Quarter
Dec 10
Full

Hourly Weather History & Observations

Time (PST) Temp. Dew Point Humidity Pressure Visibility Wind Dir Wind Speed Gust Speed Precip Events Conditions
12:56 AM 55.9 °F 28.0 °F 34% 30.10 in 10.0 mi NW 6.9 mph - N/A   Clear
1:56 AM 55.9 °F 27.0 °F 33% 30.10 in 10.0 mi NW 5.8 mph - N/A   Clear
2:56 AM 55.0 °F 27.0 °F 34% 30.09 in 10.0 mi NNW 5.8 mph - N/A   Clear
3:56 AM 55.0 °F 27.0 °F 34% 30.09 in 10.0 mi NW 4.6 mph - N/A   Clear
4:56 AM 53.1 °F 27.0 °F 37% 30.08 in 10.0 mi NW 5.8 mph - N/A   Clear
5:56 AM 50.0 °F 28.0 °F 43% 30.09 in 10.0 mi Calm Calm - N/A   Clear
6:56 AM 53.1 °F 28.9 °F 40% 30.10 in 10.0 mi West 4.6 mph - N/A   Clear
7:56 AM 61.0 °F 27.0 °F 27% 30.10 in 10.0 mi NW 3.5 mph - N/A   Clear
8:56 AM 63.0 °F 28.0 °F 27% 30.10 in 10.0 mi North 6.9 mph - N/A   Clear
9:56 AM 66.0 °F 28.9 °F 25% 30.08 in 10.0 mi NNE 8.1 mph - N/A   Clear
10:56 AM 69.1 °F 30.0 °F 23% 30.04 in 10.0 mi NNE 6.9 mph - N/A   Clear
11:56 AM 70.0 °F 30.9 °F 24% 30.00 in 10.0 mi ENE 4.6 mph - N/A   Clear
12:56 PM 72.0 °F 30.0 °F 21% 29.96 in 10.0 mi Calm Calm - N/A   Clear
1:56 PM 73.9 °F 28.9 °F 19% 29.93 in 10.0 mi NE 4.6 mph - N/A   Clear
2:56 PM 73.9 °F 28.0 °F 18% 29.91 in 10.0 mi Calm Calm - N/A   Clear
3:56 PM 73.0 °F 28.9 °F 20% 29.89 in 10.0 mi Calm Calm - N/A   Clear
4:56 PM 66.9 °F 32.0 °F 27% 29.89 in 10.0 mi Calm Calm - N/A   Clear
5:56 PM 63.0 °F 32.0 °F 31% 29.89 in 10.0 mi West 6.9 mph - N/A   Clear
6:56 PM 61.0 °F 30.9 °F 32% 29.88 in 10.0 mi West 6.9 mph - N/A   Clear
8:56 PM 61.0 °F 30.0 °F 31% 29.87 in 10.0 mi West 5.8 mph - N/A   Clear
9:56 PM 61.0 °F 30.0 °F 31% 29.87 in 10.0 mi NW 3.5 mph - N/A   Clear
10:56 PM 57.0 °F 30.0 °F 36% 29.86 in 10.0 mi Calm Calm - N/A   Clear
11:56 PM 55.9 °F 30.0 °F 37% 29.85 in 10.0 mi WSW 4.6 mph - N/A   Clear